DELTA 1 DEB

Satellite information

Favourite Embed

Satellite Type and Status

DEBRISIN ORBIT

Key statistics

Satellite DELTA 1 DEB at a glance.

Uptime

19502

Days in orbit

Revolutions

≈ 14.7

Per day

Orbit

SSO

Sun Synchronous Orbit

Inclination

97.8

Latest

Satellite identification and parameters

Extended collection of information and parameters for DELTA 1 DEB.

Object identification

Identified? True

Debris? True

Object name: DELTA 1 DEB

International designator: 1972-058JN

Object number (NORAD): 42555

Object ID (CCSDS): 42555

Country: UNITED STATES OF AMERICA (US)

Current information (Y/N): Y

RCS size: SMALL

Orbital parameters

Period: 97.788 minutes

Inclination: 97.7796 deg

SMA: 7031.007 km

Apoapsis: 661.706 km

Periapsis: 644.038 km

RAAN: 325.7671 deg

Eccentricy: 0.00125645

Argument of periapsis: 217.3793 deg

Mean anomaly: 318.7144 deg

Mean motion: 14.72571748 rev/day

Mean motion (dot): 0.00002379 rev/day2

B* drag term: 0.00038117035 1/REarth

Two-line elements (TLE)

Creation date: Dec. 8, 2025, 3:46 a.m.

Reference frame: TEME

Reference center: EARTH

Epoch: Dec. 7, 2025, 5:46 p.m. UTC

TLE line 0: 0 DELTA 1 DEB

TLE line 1: 1 42555U 72058JN 25341.74034291 .00002379 00000-0 38117-3 0 9992

TLE line 2: 2 42555 97.7796 325.7671 0012564 217.3793 318.7144 14.72571748646199

Live tracking on map

Real-time ground track for satellite DELTA 1 DEB.

In-orbit conjunctions

A list of the most updated potential collisions computed for object DELTA 1 DEB.

Target Orbit TCA Probability of collision Miss distance Type
COSMOS 2251 DEB LEO 2025-10-04 04:43:35 0.0001940127 89.0 (m) DEBRIS
SL-8 DEB LEO 2025-07-03 22:18:29 0.0001510624 361.0 (m) DEBRIS

Associated space launch

Earth observation satellite

DELTA 1 DEB was lifted into orbit during the mission ‘Delta 0900 | Landsat 1’, on board a Delta 0900 space rocket.

The launch took place on July 23, 1972, 6:06 p.m. from Space Launch Complex 2W.

For more information about the launch, click the button.

Launch to space Delta 0900 | Landsat 1
Delta 0900 | Landsat 1

Agency: N/A

Status: Launch Successful

Launch date: July 23, 1972, 6:06 p.m. UTC

Rocket: Delta 0900

Launch pad: Space Launch Complex 2W

Location: Vandenberg SFB, CA, USA

...

Latest news about this satellite

There are no fresh news available about this satellite. Check back as we update our databases every day.


Newsletter sign-up

Weekly statistics, charts and insights to help you stay on top of the space industry.